Theta_e
308 308 309 309 310 309 310 309 308 306 305 305 305 307 308 308 309 308 309 309 310 311 312 313 312 312 312 312 311 312 311 311 311 311 310 310 309 308 307 306 305 304 303 303 301 300 300 299 299 298 298 298 298 298 299 298 298 298 297 296 295 293 294 296 297 297 294 293 294 293 293 294 293 294 294 295 295 295 295 295 294 294 295 294 294
309 308 307 307 307 309 307 307 306 305 306 304 304 305 306 307 308 309 308 308 308 309 311 312 313 312 311 311 311 311 310 308 308 309 308 308 307 307 307 306 304 304 302 302 301 301 299 298 298 297 297 297 298 299 299 298 298 297 297 295 296 294 293 295 296 295 293 292 290 290 291 292 292 292 292 293 294 295 295 295 294 294 293 293 293
305 306 307 305 307 307 306 306 305 305 304 304 304 304 304 306 307 308 308 307 307 308 309 310 312 312 311 311 310 309 309 309 309 308 307 306 306 306 306 305 304 303 302 301 300 300 300 298 297 297 297 297 297 298 298 297 297 297 296 294 293 295 294 296 296 297 293 295 295 292 289 289 290 290 292 292 293 294 294 294 294 293 292 293 293
304 304 303 304 305 303 303 303 303 305 304 304 303 303 303 304 305 306 307 307 307 307 307 310 310 311 310 309 308 309 307 307 306 306 305 305 304 305 304 304 304 303 302 301 300 300 300 298 297 296 296 297 297 296 297 297 296 296 295 295 294 292 294 292 296 297 298 296 291 292 292 292 289 289 289 290 292 293 293 293 292 292 292 293 293
302 302 302 302 302 302 302 302 303 303 302 301 301 301 301 303 304 305 306 306 306 306 306 308 307 307 307 306 306 305 304 303 303 303 303 303 303 302 302 303 303 302 302 301 300 300 300 299 297 297 296 297 297 296 296 296 296 296 295 295 294 292 292 292 293 296 296 299 295 292 289 289 292 294 290 290 290 290 292 292 292 292 292 292 292
301 300 301 301 301 301 300 300 300 300 299 299 301 301 301 302 303 304 305 305 305 305 306 305 305 305 304 303 301 301 301 301 300 301 301 301 301 302 302 301 302 302 302 301 300 299 299 299 298 297 296 296 296 296 297 297 296 295 295 295 294 295 294 293 291 294 295 297 296 297 299 294 294 293 291 288 290 291 291 291 292 292 292 292 292
301 301 300 299 299 299 298 298 298 297 297 299 300 301 301 301 302 303 303 304 305 304 305 304 304 304 303 303 303 302 301 302 302 302 302 301 302 301 300 301 301 301 301 301 300 299 299 299 299 297 296 296 296 296 295 296 296 296 296 295 295 295 296 293 292 291 293 292 294 295 296 291 299 293 290 293 287 289 291 290 290 291 291 291 292
299 299 299 298 298 297 297 297 296 296 297 298 299 299 300 300 300 301 302 302 303 303 303 304 303 303 303 302 302 302 302 302 302 301 302 301 300 300 300 299 300 300 300 300 300 299 299 299 298 298 296 296 295 295 295 296 296 297 296 296 296 295 297 294 294 293 290 291 293 292 291 293 295 296 301 295 294 289 288 290 291 291 291 291 291
297 297 296 296 296 297 297 296 296 296 296 296 297 298 299 300 300 301 301 301 302 302 302 303 303 303 303 302 301 302 303 303 303 302 300 300 299 299 299 299 299 299 299 299 299 299 298 298 298 297 296 295 295 295 295 296 296 295 295 294 295 294 295 296 296 294 292 292 292 291 293 292 293 295 294 296 294 293 291 288 288 290 290 290 291
297 296 296 295 296 296 296 296 296 295 296 296 296 297 298 298 298 299 299 300 300 301 301 302 302 302 301 302 301 301 302 301 302 300 300 300 298 298 298 298 297 297 298 299 299 298 298 298 298 297 296 296 294 294 295 296 296 296 295 294 294 295 295 295 296 296 295 295 294 294 291 291 292 291 292 293 293 296 293 291 291 288 286 288 290
295 295 294 295 295 295 295 294 295 295 295 295 295 295 296 296 297 297 297 298 299 299 300 300 301 301 301 301 301 301 302 301 300 299 299 299 298 298 298 297 297 297 297 297 298 298 298 298 297 297 297 296 294 294 294 294 295 295 295 295 294 294 294 294 296 297 296 296 295 294 292 292 291 291 291 292 292 290 290 293 293 291 291 289 289
293 293 293 293 293 293 294 293 293 294 294 294 294 295 295 295 295 295 295 295 297 298 299 299 300 300 301 301 300 300 300 300 299 299 299 298 298 298 298 297 297 297 297 296 297 297 297 297 297 296 296 295 294 294 294 294 294 294 294 294 294 294 295 294 294 295 296 296 296 295 294 295 294 294 295 294 293 293 292 292 291 291 290 291 290
291 291 291 291 291 291 292 292 293 292 292 293 293 294 294 294 294 294 293 294 295 296 296 297 298 299 299 299 300 300 299 300 299 299 300 299 298 298 298 296 296 296 295 295 296 296 296 296 296 295 295 295 295 294 294 294 294 294 294 294 293 293 293 293 292 294 295 293 294 295 295 296 295 297 298 296 295 296 294 292 292 291 288 288 288
291 291 290 290 291 291 291 291 291 292 292 292 293 293 293 293 294 293 293 294 294 294 295 295 296 297 298 298 298 298 298 299 299 298 299 299 299 298 298 297 297 296 296 296 296 296 296 296 296 296 296 296 295 295 294 294 294 293 293 293 293 293 293 293 293 294 295 295 295 294 294 294 295 298 297 297 295 294 292 292 290 288 290 289 287
290 290 290 290 290 291 291 291 291 291 291 292 292 292 293 292 293 292 292 293 293 293 294 293 294 294 295 296 296 297 297 297 298 299 298 298 298 298 298 298 297 297 297 297 297 296 296 296 296 295 295 295 295 295 294 294 294 293 293 293 292 293 293 292 292 293 293 294 294 293 293 294 294 295 295 295 296 294 294 293 291 287 285 287 285
289 289 289 290 290 290 290 290 291 291 291 291 291 291 292 292 292 292 292 292 293 293 293 293 293 293 294 294 295 295 295 296 296 297 297 297 297 297 297 298 298 298 298 297 297 296 295 295 295 295 295 295 295 294 294 293 293 292 291 292 292 293 292 292 292 292 293 293 293 294 293 293 294 294 294 294 295 295 295 295 292 291 287 284 285
288 288 289 289 290 290 290 290 290 290 290 290 291 291 291 291 291 291 291 292 292 292 293 293 293 293 293 293 294 294 294 294 294 295 296 296 296 296 296 297 298 297 298 298 297 296 296 295 295 294 295 295 294 294 293 293 292 291 290 290 290 291 291 291 291 291 292 292 292 293 292 292 292 293 292 293 294 294 295 294 293 291 291 288 285
287 287 288 288 289 289 290 290 290 290 290 290 290 291 291 291 290 290 290 290 291 292 292 292 292 293 293 293 293 293 293 293 294 294 295 294 295 295 295 295 295 296 297 297 296 296 295 294 294 294 294 294 294 293 293 292 292 290 290 290 290 290 290 290 290 290 290 291 291 291 291 291 292 292 291 291 292 292 292 293 292 293 293 290 289
286 286 286 287 287 288 289 289 290 290 290 290 290 290 290 290 290 290 290 290 291 292 292 292 292 293 293 293 292 292 293 292 293 293 293 293 293 294 294 295 295 296 295 295 295 295 294 294 294 293 293 293 293 292 292 292 291 290 289 289 289 289 289 288 289 289 289 289 289 289 291 290 292 291 291 290 291 291 291 291 291 292 292 291 290
285 285 286 286 287 288 288 288 289 289 289 290 290 290 290 290 289 289 290 290 290 290 291 291 292 292 292 292 292 292 292 292 292 292 292 292 293 293 293 293 294 294 294 294 294 294 294 293 293 293 293 292 292 292 291 291 290 290 289 289 289 288 288 288 288 289 289 288 288 288 289 289 290 290 290 290 289 290 290 290 290 290 290 290 290
285 285 286 286 286 287 288 288 289 289 289 290 290 289 289 289 289 289 288 289 289 289 290 290 291 291 291 290 291 291 291 291 291 291 291 291 292 292 292 293 293 293 293 293 293 293 293 293 292 292 292 291 291 291 290 290 289 289 289 289 289 288 287 287 288 288 288 287 287 287 288 288 290 289 289 289 289 289 289 289 289 289 289 288 288
285 286 286 286 286 286 287 288 289 289 288 288 289 289 289 288 288 288 288 288 288 288 289 289 290 290 290 290 290 290 291 291 290 291 290 290 291 291 292 292 291 292 292 292 292 292 292 292 292 292 291 291 291 290 290 289 289 288 288 289 288 287 287 287 287 287 287 287 287 287 287 287 288 287 288 288 288 288 287 287 287 287 287 287 288
285 285 285 286 286 286 287 287 288 288 288 288 288 288 288 288 288 288 287 288 289 289 289 289 289 289 289 289 289 289 289 289 289 290 290 290 290 290 291 290 291 291 291 291 291 291 292 292 291 291 291 290 290 290 289 289 288 288 288 287 288 287 287 286 286 286 287 287 286 286 286 287 287 286 287 287 288 287 287 286 286 286 286 286 286
286 286 286 286 286 286 286 287 287 288 288 288 288 288 288 288 288 287 287 287 288 288 289 289 289 288 289 288 288 288 288 288 288 289 289 289 289 290 290 290 290 290 290 291 291 291 291 290 290 290 290 290 289 289 289 288 288 288 287 287 287 287 286 286 286 286 286 286 285 285 286 286 286 285 285 286 286 286 286 285 285 285 285 286 286
285 286 286 286 286 286 286 286 287 288 288 288 288 288 288 288 287 287 287 287 288 288 288 288 288 287 288 288 288 288 287 287 287 288 288 288 289 289 289 289 289 289 290 290 290 290 290 290 289 289 289 289 289 289 288 288 288 288 287 287 287 286 286 286 286 286 286 286 285 285 285 285 285 284 285 285 285 284 285 284 284 284 284 285 284
284 285 285 285 285 286 286 286 286 287 288 288 288 287 287 287 287 287 286 287 287 288 288 287 287 287 287 287 287 287 287 287 287 287 288 288 288 288 288 288 289 288 288 289 288 289 289 289 289 289 289 289 289 288 288 288 287 287 287 287 287 286 286 286 286 286 286 286 285 285 285 285 284 284 284 284 284 284 284 283 283 284 284 284 283
283 284 285 285 284 284 285 286 286 286 287 288 288 287 286 286 286 286 286 286 287 287 287 287 287 286 287 287 286 286 286 286 286 286 287 287 287 287 288 287 288 287 287 287 287 287 287 288 288 288 288 289 288 288 288 287 287 287 286 286 286 286 286 286 285 285 285 285 285 285 285 285 284 284 285 284 284 283 283 283 284 283 283 282 282
284 284 284 284 284 285 285 285 285 286 287 287 288 287 286 286 286 286 285 285 286 286 286 286 286 286 286 286 287 286 286 286 286 286 286 286 286 286 286 287 287 288 288 288 287 287 287 287 287 287 287 288 288 288 288 288 287 287 286 285 286 286 286 285 285 285 285 285 285 285 285 285 285 285 285 284 283 283 283 282 283 283 282 281 281
283 283 283 284 284 284 284 285 285 285 285 286 287 287 287 286 286 285 284 284 285 285 285 285 285 285 285 286 287 287 287 287 287 286 286 286 285 285 285 285 286 286 287 287 288 287 287 287 286 286 286 287 287 287 288 287 286 286 286 285 285 285 285 285 285 285 285 285 285 285 285 285 285 284 285 285 284 284 283 282 283 283 282 281 281
282 283 283 284 284 284 284 285 285 285 285 285 286 286 286 285 285 285 284 284 284 284 284 284 284 284 285 286 286 286 286 286 286 286 286 286 285 285 285 285 285 286 286 286 286 287 287 287 287 286 286 286 286 287 287 287 288 286 286 286 285 285 285 285 285 284 284 284 285 285 285 284 284 284 284 285 286 285 285 284 283 282 282 281 281
282 283 283 284 284 284 284 284 284 285 285 285 286 286 286 285 285 284 284 284 284 283 284 284 283 284 284 285 285 285 285 285 286 286 286 285 285 285 285 285 285 285 285 286 286 286 286 286 286 287 287 286 286 286 287 289 289 289 287 286 285 285 285 285 285 284 284 284 284 285 285 284 284 283 284 284 286 285 285 285 284 284 283 282 280
282 283 283 284 284 284 284 284 284 285 285 285 285 286 285 284 285 284 283 283 283 283 283 283 283 283 283 283 283 283 283 283 284 285 285 285 284 284 284 284 284 284 285 285 285 285 286 286 286 286 286 286 287 287 288 288 289 289 288 286 285 285 285 285 285 284 284 284 284 284 284 284 284 284 283 283 284 285 285 285 284 283 283 284 284
282 282 283 283 284 284 284 284 284 285 285 285 286 285 284 284 284 283 283 282 282 282 282 282 282 282 282 283 282 282 281 281 283 284 284 284 283 283 283 283 283 284 284 284 285 285 285 285 285 285 285 286 286 287 288 289 289 289 289 288 286 285 285 285 285 285 284 283 283 283 282 282 283 283 283 282 282 283 284 284 284 283 283 283 284
283 283 283 284 284 284 285 285 285 285 285 285 286 285 285 284 284 283 282 281 281 281 281 281 281 281 281 282 281 280 280 280 282 283 283 282 282 281 282 282 282 283 283 284 284 284 284 285 285 285 285 285 285 286 288 288 289 289 289 289 286 285 285 285 285 285 284 284 283 282 282 281 282 282 283 282 282 282 282 282 282 281 280 281 283
282 283 283 284 284 284 285 285 284 284 285 285 285 285 284 283 283 282 281 280 280 280 280 280 280 280 280 280 280 279 278 279 280 282 281 280 280 280 280 280 280 281 282 283 283 283 284 284 284 284 284 284 285 286 287 287 288 288 289 289 287 286 285 285 285 284 284 283 283 283 282 281 281 281 282 282 281 281 281 280 280 279 279 279 280
282 282 283 283 283 283 284 284 285 285 284 284 284 284 283 282 282 281 280 280 279 279 279 279 279 279 279 279 279 277 277 277 278 280 280 279 278 278 277 278 278 279 281 283 283 283 283 283 284 284 284 283 284 286 286 286 287 288 288 287 286 286 285 285 285 285 283 283 283 283 282 281 281 281 282 283 282 281 280 279 278 278 278 279 279
284 284 283 284 284 284 284 285 284 284 283 283 283 283 282 281 281 280 280 279 279 278 278 278 278 278 278 278 278 276 276 276 277 278 278 277 276 275 276 276 276 278 279 280 281 282 282 283 283 283 283 283 283 285 285 286 286 287 287 286 286 285 285 285 285 285 284 283 283 282 282 281 281 281 282 284 284 282 279 278 278 277 277 277 278
284 284 285 285 285 285 284 284 283 282 282 282 282 281 280 279 279 279 279 278 278 277 277 277 277 278 278 277 277 275 275 275 276 276 275 275 274 274 274 275 275 276 277 279 280 281 281 282 282 281 282 282 283 284 285 285 286 286 286 285 285 285 285 285 285 285 284 283 283 282 282 281 280 280 282 284 284 282 279 278 278 277 276 276 277
284 284 283 284 284 283 283 282 281 281 281 281 280 279 278 277 278 278 277 277 276 277 277 277 277 277 277 276 275 275 274 274 274 274 273 272 272 272 273 274 274 276 276 278 279 280 280 281 282 281 282 282 282 283 284 285 285 285 285 285 285 284 284 284 285 284 284 283 282 282 282 281 280 280 283 284 284 282 279 279 278 277 276 275 276
284 284 284 283 282 281 281 280 280 280 281 280 279 278 277 276 276 277 276 275 276 276 277 277 277 276 276 275 274 273 273 273 273 272 272 271 271 271 272 272 273 274 274 275 276 278 278 279 280 280 281 281 282 282 283 284 284 285 285 284 284 284 283 284 284 284 282 281 281 281 281 283 282 282 283 284 284 284 280 279 279 277 276 275 278
283 282 282 281 280 280 279 279 279 279 279 278 277 276 275 275 276 275 274 275 276 276 276 275 275 274 274 273 273 272 272 272 271 270 270 270 270 270 270 271 271 272 272 273 274 275 276 277 279 280 280 281 281 281 282 283 284 284 285 285 284 284 284 284 284 283 282 280 280 280 280 282 283 283 283 283 284 284 282 279 279 278 277 278 280
282 281 280 279 278 278 278 278 278 278 278 277 276 274 274 274 274 273 274 275 275 275 274 273 273 272 272 271 271 271 271 270 270 269 268 268 269 269 269 269 270 270 270 271 272 273 275 276 278 280 280 280 281 281 281 282 283 284 284 285 283 284 285 284 283 283 282 280 279 279 278 280 282 283 282 283 284 284 284 280 279 281 281 281 278
279 279 279 277 276 276 276 276 277 277 276 276 275 272 272 272 272 272 274 274 273 273 272 272 271 270 270 269 269 269 268 268 268 268 267 267 267 267 267 268 268 268 269 270 271 273 274 276 277 279 280 280 280 281 281 281 282 283 283 284 285 284 285 285 283 282 281 279 279 278 278 280 282 282 282 283 284 284 284 281 281 282 281 281 279
278 277 277 276 275 275 274 275 275 274 274 274 273 271 271 270 270 272 272 272 271 271 270 269 269 268 268 268 268 267 267 267 267 267 266 266 266 266 266 267 267 268 268 269 271 273 274 276 277 278 279 280 280 281 281 281 281 282 283 284 284 285 285 284 284 283 282 279 278 278 278 280 281 282 282 283 283 283 282 284 282 282 282 281 277
275 275 275 274 273 272 271 271 272 272 272 271 271 269 269 268 269 271 270 269 269 268 267 267 266 266 266 266 266 266 266 266 266 266 265 265 265 265 265 266 266 267 268 268 270 272 273 275 276 277 278 279 280 280 280 280 281 281 282 283 283 284 285 285 284 283 283 280 279 279 279 280 281 282 282 283 283 283 284 284 282 282 281 279 276
274 273 273 271 270 270 269 268 269 269 269 269 269 268 266 266 268 268 267 267 266 265 264 264 264 264 264 264 264 264 264 265 265 265 264 264 264 264 264 265 265 266 267 268 269 271 273 274 275 276 277 278 279 280 279 279 279 280 280 281 282 283 283 284 284 284 284 282 280 280 280 280 280 281 281 280 280 281 283 283 282 281 279 278 276
271 271 270 268 268 267 266 266 265 266 266 266 265 265 264 264 264 265 264 264 263 262 261 262 262 262 262 262 262 262 263 263 263 263 264 264 264 264 264 264 265 265 266 267 269 270 272 273 274 275 276 277 278 279 279 279 279 278 278 279 280 280 282 283 283 283 283 281 280 279 279 280 279 280 281 281 281 281 281 282 280 279 279 278 275
270 269 268 266 265 264 264 263 263 263 263 263 262 262 262 262 262 262 261 261 260 260 260 260 260 260 261 261 261 261 261 261 262 262 262 262 263 263 263 263 264 265 265 266 267 269 270 271 273 275 276 276 277 278 278 278 278 278 278 278 279 279 280 280 281 282 282 281 279 279 279 278 278 278 279 279 279 279 280 280 278 278 278 276 275
267 266 265 264 263 262 261 261 261 261 261 261 261 261 261 261 260 260 260 259 259 259 259 258 259 259 259 260 260 260 260 260 260 261 261 262 262 262 262 263 264 265 266 266 267 268 269 271 272 274 274 275 276 276 278 280 279 279 278 277 277 278 279 279 281 283 280 279 278 277 276 276 276 276 276 277 278 278 278 277 277 277 276 274 274
265 264 263 262 261 260 259 259 259 260 260 260 259 260 260 260 260 260 259 258 258 258 258 258 258 259 259 259 259 260 260 260 260 260 260 260 264 267 265 263 263 267 270 272 272 269 270 271 272 273 275 275 275 277 280 281 281 281 281 280 280 280 281 280 281 283 281 277 276 275 275 275 275 275 275 276 277 277 277 276 276 277 274 273 273
262 261 260 259 259 259 259 258 259 259 259 259 259 259 259 259 260 260 259 258 258 258 258 258 258 258 259 259 259 259 259 259 259 260 260 260 260 262 267 269 269 270 271 272 274 275 276 277 275 273 276 279 280 280 281 282 282 282 282 281 281 281 282 282 282 281 279 276 275 274 274 275 275 275 276 276 276 277 274 274 274 273 273 272 272
Wind_Speed
3 7 7 8 9 9 9 7 7 6 6 6 6 7 9 9 7 9 8 10 9 9 9 10 11 10 10 11 11 9 10 10 9 10 9 9 9 10 10 10 11 11 12 12 12 11 10 8 9 9 9 9 9 10 10 10 9 9 8 8 10 9 6 5 7 8 8 6 4 4 3 2 2 2 3 3 3 4 4 4 4 4 4 3 2
7 8 8 7 8 10 9 7 7 9 7 4 5 6 5 7 8 7 7 9 10 10 9 10 10 10 10 11 10 9 9 10 10 9 10 8 9 10 10 10 10 11 11 11 11 11 11 9 9 10 10 10 9 8 8 8 9 9 8 8 7 9 7 8 9 10 7 8 8 5 3 3 3 2 3 4 3 4 4 4 4 4 4 3 3
9 7 7 10 11 11 9 10 9 8 8 6 5 5 5 5 6 7 7 8 9 9 9 9 9 9 9 6 8 7 7 8 8 8 8 9 9 10 10 10 11 10 10 11 10 11 11 10 10 10 11 10 9 9 9 10 10 11 11 10 9 7 6 7 10 11 7 7 6 6 5 5 4 4 4 4 4 4 4 4 3 4 4 4 4
7 11 11 10 10 12 13 12 11 8 8 9 9 7 4 3 4 5 6 7 7 8 8 7 7 7 7 3 4 6 5 6 6 5 6 8 9 9 9 10 11 10 11 11 9 10 11 11 10 10 11 11 11 11 11 11 10 10 11 10 10 10 7 9 9 8 4 11 7 6 5 5 3 8 7 6 5 4 5 5 4 4 5 4 3
10 11 12 12 14 14 14 13 11 11 11 11 10 8 5 7 4 3 4 5 6 7 9 7 5 5 5 2 1 4 2 4 6 8 7 7 8 8 9 9 10 10 10 12 11 11 11 10 11 11 11 11 11 10 11 12 12 12 13 11 13 12 11 9 10 8 8 5 3 6 3 3 6 4 9 6 6 5 6 6 6 5 5 4 3
11 10 11 12 12 14 16 16 16 14 14 12 10 9 9 7 6 4 3 3 4 5 7 7 7 8 7 8 8 8 9 9 10 10 9 10 11 7 8 9 10 10 10 12 12 11 11 11 10 10 11 10 11 10 10 9 11 12 13 13 14 13 11 10 11 9 8 7 6 4 2 2 4 7 8 5 7 6 6 6 6 7 5 4 3
11 11 12 12 13 14 16 18 17 17 16 12 11 11 11 9 7 5 3 2 1 3 6 5 6 7 9 9 9 9 9 8 7 7 8 8 8 10 9 10 12 12 11 11 12 12 12 11 11 11 11 10 10 10 10 12 11 12 11 12 12 12 11 11 13 12 7 7 5 5 3 2 2 9 7 5 5 6 7 7 7 7 6 5 4
10 11 9 10 13 15 16 17 17 17 14 13 12 12 13 11 9 7 5 3 1 2 4 6 6 7 7 8 7 8 7 6 6 7 6 7 9 10 9 9 10 11 10 11 11 12 12 12 12 11 11 11 10 11 11 10 9 9 11 12 10 12 12 12 12 11 13 10 9 6 4 2 3 4 3 7 4 7 7 6 6 7 7 6 6
10 8 11 15 15 16 16 16 16 17 16 16 14 13 12 11 11 9 7 6 4 0 3 5 6 6 6 7 8 7 7 6 3 5 5 5 8 8 9 8 9 11 11 11 12 12 11 12 12 12 11 11 10 10 9 10 12 13 13 12 12 11 11 11 10 11 12 10 9 7 5 5 3 2 2 2 5 7 6 9 8 6 6 7 7
6 9 12 14 14 15 15 15 17 16 15 15 15 13 13 12 13 13 12 8 7 5 3 4 5 5 5 7 8 7 6 6 6 5 5 5 7 8 8 8 8 9 11 12 12 13 12 12 11 13 12 11 10 11 10 10 11 11 12 13 13 13 11 11 12 10 11 9 11 8 9 6 4 4 5 5 1 3 5 8 9 10 9 8 8
9 11 14 14 13 15 17 19 16 17 15 16 15 15 14 14 13 15 13 10 9 7 5 4 4 5 6 7 8 8 7 6 6 6 5 6 7 8 8 8 8 9 9 10 12 13 13 12 11 11 11 10 10 12 12 12 11 11 11 11 12 14 11 11 9 8 9 9 10 9 11 11 11 10 9 8 8 6 4 5 6 8 7 8 8
13 14 14 14 16 17 17 18 18 17 18 18 16 15 15 15 15 16 15 14 11 9 7 5 5 5 5 6 7 7 8 7 8 9 7 7 7 7 7 7 8 8 8 9 11 12 11 11 12 12 12 12 13 12 11 11 11 10 9 10 11 12 10 9 10 9 9 7 9 9 9 9 9 8 8 9 9 8 8 7 6 5 2 3 5
13 14 15 17 17 17 18 17 16 18 17 18 18 15 14 15 17 16 16 13 11 9 8 7 6 5 6 7 7 7 7 8 8 8 7 6 6 7 7 7 7 8 9 11 11 14 12 12 12 13 13 13 12 12 12 12 11 11 11 11 11 12 12 11 10 11 10 9 9 9 8 9 9 8 6 7 7 6 7 6 4 5 5 6 5
15 15 15 15 15 14 15 15 15 15 16 16 16 16 14 14 16 17 15 14 12 11 10 9 7 7 6 6 7 7 7 7 7 7 7 6 6 7 8 8 8 9 9 11 10 11 11 12 12 12 12 12 12 13 12 12 12 12 13 13 14 12 11 12 12 11 10 10 7 8 9 7 8 4 5 5 7 6 7 8 5 2 1 4 4
13 13 14 14 14 14 13 13 13 14 15 15 14 14 13 14 15 18 18 17 16 14 12 13 10 8 7 7 7 7 7 7 7 6 7 7 7 7 8 8 8 8 9 8 9 10 12 11 12 12 13 12 11 11 10 11 11 11 11 12 11 11 12 12 12 12 11 12 11 10 9 8 8 6 6 7 7 8 8 8 8 7 4 2 4
12 12 13 14 14 14 13 13 13 13 14 14 15 14 14 13 14 16 17 17 16 16 14 12 11 9 9 8 8 7 6 6 7 7 7 7 7 8 9 9 8 8 7 8 9 9 11 12 12 12 13 12 11 12 11 10 10 11 10 10 12 7 10 13 12 12 12 13 12 9 8 10 7 6 7 7 7 7 6 6 8 9 8 5 6
11 11 10 12 13 13 12 12 12 13 13 14 14 14 15 14 14 15 15 15 16 16 15 14 12 11 10 8 8 7 7 7 7 8 8 7 7 8 8 9 8 8 7 6 8 9 10 11 11 12 13 12 12 12 11 11 10 11 11 12 13 11 11 13 12 11 12 11 10 11 10 8 8 7 6 6 6 6 6 5 8 9 9 7 6
8 8 8 10 10 11 11 11 12 12 12 13 14 12 11 11 14 15 15 17 16 15 14 13 13 11 11 11 10 9 8 8 8 8 8 7 7 7 7 8 8 7 6 4 7 8 9 11 11 11 11 12 12 11 12 12 11 11 13 12 12 10 12 11 12 12 11 10 10 9 10 9 7 7 8 7 6 7 6 6 7 8 8 10 8
7 8 8 8 8 9 9 10 10 11 11 11 10 10 10 10 11 11 12 12 11 9 10 10 11 9 9 11 12 11 10 9 8 8 8 8 9 8 9 8 8 7 7 7 8 9 9 9 11 11 11 12 12 12 11 12 13 13 13 12 12 12 11 13 12 11 11 10 12 12 10 10 8 8 7 7 7 6 7 6 6 5 5 8 9
4 5 5 6 7 8 9 10 10 11 11 10 10 10 13 12 14 14 14 13 12 13 12 12 11 11 12 12 13 12 12 11 10 9 9 9 10 10 10 9 9 8 7 8 8 9 10 10 11 11 12 12 12 12 12 13 12 13 13 13 13 14 14 14 12 11 9 11 12 13 12 11 8 8 8 8 8 7 7 7 6 6 6 5 5
2 3 3 4 6 7 8 8 8 8 9 9 9 11 11 12 14 13 14 14 15 14 13 12 11 12 13 14 12 12 13 11 11 11 10 10 10 10 9 10 8 8 8 8 9 10 10 10 11 11 12 12 13 13 11 12 12 13 13 13 13 14 16 14 13 14 12 12 14 14 13 13 10 11 9 8 8 8 7 7 6 6 7 6 7
4 5 6 6 7 7 7 7 7 7 8 11 11 11 14 14 13 12 12 12 12 13 12 12 11 10 11 12 12 11 10 10 11 11 10 10 10 10 10 9 10 10 9 9 10 9 9 11 11 11 12 12 12 13 12 12 13 13 14 10 12 13 14 15 13 14 14 11 12 13 13 12 11 12 10 11 10 10 10 9 8 8 8 8 8
5 5 4 5 5 6 6 8 9 10 10 11 11 11 11 12 12 12 13 14 12 11 11 10 10 11 12 10 10 10 10 11 11 10 12 12 11 11 10 10 10 10 9 9 10 10 10 11 11 10 11 11 12 12 12 13 14 15 15 13 12 14 15 15 16 16 15 13 13 14 14 11 8 11 11 10 10 11 10 11 11 9 9 9 9
7 7 7 7 7 8 9 10 10 10 10 10 9 9 9 9 9 9 11 12 12 11 11 11 11 12 11 11 10 10 11 11 11 9 11 11 10 10 10 10 10 10 10 10 10 10 11 11 11 11 11 11 12 12 12 13 15 15 14 15 14 14 14 14 15 14 13 13 15 15 14 13 11 12 11 11 10 10 10 10 9 8 8 9 8
9 10 9 8 8 8 8 8 8 8 8 8 8 8 8 8 8 8 8 8 9 9 9 10 11 12 12 12 12 11 11 12 12 10 11 10 9 9 9 10 10 10 11 10 10 9 10 11 10 11 12 12 12 12 13 13 13 13 14 14 14 14 14 14 15 14 14 12 13 14 14 11 11 12 12 12 10 13 9 8 8 8 8 7 6
6 7 9 10 10 10 10 10 8 8 8 8 8 7 8 8 8 7 8 7 8 7 8 8 8 9 10 12 12 12 12 12 11 11 12 12 10 9 9 8 8 10 10 11 11 10 9 11 11 11 12 12 11 11 13 14 13 13 13 14 13 13 14 14 14 14 13 11 12 13 10 11 13 15 14 13 10 12 8 8 10 9 9 8 9
1 2 2 3 5 6 8 9 9 9 9 8 8 9 8 8 8 8 8 8 8 8 8 8 8 7 7 8 9 10 9 10 10 10 10 11 11 11 10 10 8 7 8 8 8 10 9 10 12 11 12 12 12 13 13 13 12 12 13 13 13 13 14 13 13 14 12 12 13 11 10 12 15 15 13 13 11 11 10 12 10 10 9 9 10
1 3 3 3 3 4 5 6 7 8 9 9 8 8 8 8 8 7 7 7 6 8 8 8 8 8 7 8 7 7 8 8 8 9 8 8 8 9 10 9 9 10 10 9 9 9 9 8 9 10 11 11 11 11 13 13 12 12 11 12 13 13 14 13 14 14 14 14 15 14 14 15 16 16 13 8 9 11 10 10 9 8 9 9 9
4 5 4 5 5 5 6 6 6 7 8 8 8 8 8 8 7 7 7 8 8 8 8 7 7 8 8 8 8 7 7 8 9 9 10 11 11 10 9 8 9 9 8 9 10 10 10 10 10 10 11 10 11 12 10 9 10 12 11 12 15 14 14 15 14 14 15 16 16 16 16 15 19 22 23 21 18 17 11 11 10 10 9 7 7
5 6 6 5 6 6 6 7 7 7 8 8 8 8 8 9 9 9 10 9 9 9 9 9 8 8 8 8 8 7 7 8 8 9 9 10 10 11 11 11 11 10 9 8 8 9 9 10 11 11 11 10 10 9 12 17 16 11 12 13 13 15 14 14 14 14 15 16 17 16 15 23 23 24 24 24 25 22 23 15 12 11 12 8 8
6 6 7 7 7 7 7 7 8 8 8 7 7 7 7 8 8 8 8 9 9 10 10 10 10 10 9 9 8 8 9 9 7 7 6 7 10 9 9 9 9 9 11 9 9 9 9 9 10 11 12 10 10 10 16 16 17 21 16 13 13 14 14 15 15 15 15 15 15 16 14 18 21 21 22 23 14 16 14 14 10 7 12 21 17
8 7 7 7 8 8 8 9 9 9 9 8 8 7 8 8 8 8 8 8 9 9 10 10 10 11 11 11 10 10 10 10 9 7 6 6 6 7 8 9 9 10 10 9 10 9 9 9 9 10 11 12 11 12 16 17 19 21 20 15 12 13 13 13 14 14 13 12 13 13 12 10 13 16 13 13 17 16 17 18 14 10 13 16 20
8 8 8 8 8 8 9 10 9 9 9 9 8 8 8 8 8 8 8 8 9 9 10 10 10 11 11 10 10 10 10 11 11 10 9 8 8 8 8 8 10 10 10 10 11 11 11 10 9 11 11 11 11 13 15 16 18 19 21 20 13 13 13 13 14 14 14 13 11 9 9 9 10 22 16 13 13 13 17 18 17 14 15 18 19
7 7 8 8 8 8 8 9 10 11 10 10 8 8 9 8 7 8 8 9 9 10 10 10 10 10 10 10 10 9 10 10 11 11 10 10 10 10 10 9 10 10 10 10 10 11 11 11 10 11 11 11 12 13 15 16 17 19 22 20 14 15 14 15 14 13 13 14 13 10 9 9 8 11 13 15 14 13 12 13 12 11 11 14 18
8 8 9 8 9 9 9 9 9 9 9 9 9 8 9 8 8 8 7 8 9 10 10 10 10 11 10 8 8 8 10 11 11 11 10 11 11 11 11 10 10 11 11 10 10 10 10 10 10 10 11 11 10 15 16 18 18 20 21 20 14 14 14 15 12 11 12 13 12 10 11 10 10 12 13 16 15 13 14 12 12 12 10 12 14
8 9 9 9 10 11 11 11 9 8 8 8 9 9 8 10 8 8 8 7 8 9 11 10 9 9 9 9 8 9 9 10 11 11 11 11 11 10 11 11 11 11 10 10 10 10 11 12 11 10 10 12 12 14 16 18 20 20 22 14 13 14 14 15 16 12 10 11 12 10 10 10 10 11 15 22 17 11 15 16 18 16 10 10 12
10 10 11 10 10 11 11 10 9 10 10 10 9 8 9 9 8 7 7 8 8 9 10 11 10 11 10 9 8 8 10 11 11 12 11 11 11 13 12 9 11 11 12 11 10 11 11 12 12 11 11 12 11 13 15 18 19 20 17 11 12 12 13 15 12 10 10 12 11 12 12 11 11 12 17 24 22 16 15 17 17 16 8 9 10
11 12 11 11 10 9 9 9 11 12 11 9 8 8 9 9 9 9 8 10 10 12 12 11 12 11 11 9 8 8 9 11 11 11 11 11 11 11 12 10 11 12 12 12 12 12 12 11 12 13 12 12 13 12 14 17 19 20 17 12 11 12 14 14 10 9 9 10 13 21 17 12 12 13 19 25 26 20 18 18 17 17 12 12 10
11 12 12 11 10 8 9 9 10 12 12 10 9 8 8 9 10 10 10 11 11 12 12 11 13 12 11 9 8 8 10 12 12 11 10 11 12 12 12 11 11 11 13 12 12 12 13 12 11 13 13 14 13 14 17 17 20 20 16 11 12 12 15 14 13 9 9 9 9 13 19 16 12 13 22 25 28 22 17 17 13 13 12 14 13
11 10 8 8 8 9 10 10 11 12 11 11 8 8 10 11 11 10 11 11 11 12 12 12 13 12 10 9 8 9 11 11 11 11 10 11 12 12 12 12 12 12 12 13 12 12 14 13 12 13 13 12 13 12 13 19 19 20 21 14 11 13 15 15 14 10 7 8 7 8 15 22 20 20 23 27 27 28 14 12 12 13 14 15 12
11 8 8 8 8 9 10 12 12 12 11 9 7 8 11 12 12 12 13 12 12 12 12 13 12 11 10 10 10 10 12 11 9 11 12 12 11 12 13 13 13 13 13 13 15 14 15 15 14 12 12 13 12 13 16 19 19 20 21 19 13 15 15 13 14 12 8 8 8 9 9 18 24 23 25 28 29 29 24 14 15 13 13 12 16
6 6 6 7 10 11 13 13 13 12 10 7 6 9 11 12 12 14 15 14 14 13 13 11 12 12 11 10 11 10 10 10 11 10 12 13 12 12 13 13 12 13 15 16 16 14 14 14 13 12 11 13 13 16 14 17 21 22 22 24 16 15 15 13 14 9 10 7 9 8 7 15 24 25 25 27 29 29 32 15 15 18 15 23 18
9 10 8 7 10 13 14 15 13 12 10 9 9 12 12 12 14 17 15 15 14 13 13 12 12 12 13 14 13 11 11 9 10 10 12 15 14 13 13 13 14 15 16 18 17 16 14 14 13 13 12 11 10 10 18 16 19 23 24 25 27 22 22 16 14 14 12 7 6 7 8 19 25 26 26 28 29 32 30 20 23 23 21 26 16
10 9 9 8 11 12 14 14 14 12 10 9 10 13 12 15 18 17 15 14 13 12 12 12 13 14 17 15 14 15 14 11 11 12 12 14 15 14 13 13 13 14 14 15 14 14 13 13 13 13 12 12 10 9 12 19 18 23 24 26 26 28 26 16 14 13 11 8 7 8 8 19 24 26 26 27 28 29 23 31 27 28 26 25 11
11 12 10 8 10 13 15 16 16 14 12 11 11 13 16 18 17 15 16 15 15 14 14 15 16 16 16 15 16 14 12 11 11 12 15 15 16 14 15 14 13 14 15 15 15 14 14 13 13 13 12 11 10 9 8 12 19 21 24 25 26 27 26 28 19 14 12 9 10 14 17 21 23 25 27 27 27 30 33 30 30 31 27 17 11
9 9 9 10 12 13 14 16 18 15 13 12 12 11 15 18 17 16 16 16 17 18 18 17 18 16 17 18 19 18 17 16 16 16 16 16 18 16 16 15 13 14 15 15 15 14 14 14 14 13 13 13 11 10 8 7 10 15 18 23 26 26 26 28 25 16 18 16 17 19 22 23 24 23 21 17 16 17 27 30 29 30 19 18 14
10 11 11 11 12 13 15 17 19 17 12 12 14 14 14 15 16 17 16 16 17 17 19 19 19 18 18 18 18 16 16 17 17 16 16 15 15 14 15 15 14 14 15 15 15 15 15 14 14 14 13 12 12 10 9 8 8 9 10 12 14 16 23 23 18 14 15 12 15 17 14 18 16 25 26 23 23 20 19 20 17 19 17 15 13
10 10 10 11 11 13 15 17 17 17 15 14 13 14 15 14 15 16 17 18 19 19 19 19 20 18 17 17 17 20 20 16 16 14 15 14 13 13 14 16 15 14 14 15 15 15 15 15 14 13 13 12 12 11 10 9 8 8 8 9 10 10 11 10 13 12 10 11 9 13 17 13 14 14 17 14 13 12 14 14 15 15 12 11 12
12 11 10 10 12 14 16 16 17 15 15 14 15 15 14 17 18 17 16 18 19 21 20 20 19 17 17 16 15 15 15 15 16 15 15 15 14 14 15 17 18 15 15 15 15 16 17 16 15 15 15 14 13 13 11 8 8 11 11 9 9 10 10 11 14 16 9 8 9 10 11 12 12 14 14 15 15 14 10 13 15 15 13 10 11
10 10 11 12 11 12 15 17 17 15 15 17 17 17 17 16 15 15 14 17 20 19 20 19 17 17 16 16 16 15 15 16 16 16 16 17 21 25 22 18 18 23 30 32 27 20 18 15 15 16 15 15 15 14 15 16 14 18 20 22 19 18 17 14 15 21 14 10 10 11 13 13 13 13 14 15 14 14 12 14 13 12 12 10 14
12 12 13 12 13 14 15 17 16 15 15 16 17 16 15 15 14 15 16 15 17 18 18 18 17 16 17 17 17 17 17 15 16 16 17 17 17 16 24 31 33 32 31 31 31 33 33 31 22 18 19 29 30 32 31 28 27 25 22 23 23 23 24 23 22 14 14 12 12 11 12 13 13 13 13 14 12 12 10 10 11 11 13 13 14
Wind_Direction
331 283 282 305 317 326 325 320 315 306 277 269 255 234 227 225 213 212 199 199 198 195 197 194 197 202 209 214 219 211 212 211 212 212 212 209 200 194 191 191 191 188 189 186 193 191 191 180 170 172 180 182 186 189 181 174 171 168 158 160 162 165 174 163 156 144 135 123 113 116 114 109 120 172 170 170 170 165 162 161 150 150 141 139 136
287 299 316 325 349 346 341 335 336 330 333 317 273 268 251 233 228 217 197 198 203 201 197 198 202 202 201 209 209 209 204 205 214 210 211 206 201 196 199 195 194 191 190 191 193 190 187 176 175 176 182 188 192 187 170 158 158 164 157 158 176 175 171 175 167 161 175 169 158 154 152 155 162 186 181 173 179 174 174 164 165 158 151 149 151
310 325 354 2 354 358 0 357 356 349 332 334 340 319 292 257 240 224 207 200 205 204 200 202 202 205 205 211 203 211 216 219 218 219 208 207 202 199 199 197 198 196 190 192 194 192 189 180 183 179 184 183 183 182 175 172 175 172 172 170 164 182 174 180 183 200 183 173 160 145 176 174 175 206 195 193 184 180 180 173 167 153 153 158 157
340 7 1 1 7 10 11 9 357 350 10 11 3 348 322 280 258 237 224 208 207 204 204 204 201 194 190 189 182 211 226 207 214 217 211 210 213 205 206 205 198 198 193 192 195 195 192 187 180 182 187 187 187 183 180 181 174 175 177 179 167 165 180 188 204 211 224 152 172 217 168 202 184 211 188 182 180 182 196 184 173 165 160 165 169
9 2 3 17 23 21 18 8 0 8 14 9 357 352 342 330 309 263 243 223 217 207 198 197 175 174 183 158 160 210 250 229 220 230 223 219 220 212 213 205 203 201 196 195 198 198 197 192 189 189 187 189 190 187 183 186 180 180 176 175 180 181 179 183 200 209 230 250 212 142 137 216 235 131 162 174 175 189 201 196 184 179 178 182 174
21 3 7 23 26 28 24 18 15 10 10 1 356 354 348 344 340 327 276 238 219 215 201 203 209 205 194 195 208 214 223 216 217 215 207 209 211 213 208 204 203 205 203 197 198 199 200 197 192 189 190 189 194 194 184 176 180 180 183 184 187 194 179 172 187 208 224 237 260 309 331 233 180 144 164 187 173 208 194 198 197 199 194 191 193
21 24 22 23 29 34 31 24 16 12 3 352 359 3 1 357 352 346 332 307 225 215 190 196 207 210 210 210 213 213 220 224 218 211 212 208 202 204 203 198 204 206 206 202 200 201 201 198 196 194 193 194 193 193 188 186 183 185 182 192 193 188 184 185 184 189 199 247 237 241 271 234 277 144 199 127 180 193 212 202 207 206 207 213 204
21 19 12 24 35 38 37 29 22 13 360 1 5 3 2 3 358 1 357 345 4 210 200 209 217 214 214 217 222 228 229 239 206 209 213 205 199 201 200 201 199 205 208 205 206 204 203 201 198 197 195 196 191 199 196 188 182 185 187 193 191 195 193 194 188 180 185 202 198 212 234 247 262 295 260 202 208 168 192 205 217 199 210 218 219
27 18 23 29 29 33 39 35 23 16 14 12 7 3 360 -0 6 9 12 3 0 267 227 210 222 230 223 223 230 234 239 241 243 207 218 205 206 209 205 201 196 200 206 206 205 207 205 205 199 199 198 197 192 201 201 191 189 183 183 189 194 197 202 207 196 188 193 192 163 205 203 206 195 246 281 263 234 215 181 180 193 187 215 223 214
34 35 37 36 31 36 42 42 33 24 17 15 15 13 10 7 8 11 17 10 7 344 291 246 226 233 236 235 238 241 235 239 237 234 219 211 212 215 210 207 203 200 203 206 202 205 208 207 206 202 201 197 191 200 199 191 194 192 191 193 194 196 199 202 209 197 192 197 182 173 184 176 195 207 216 201 262 264 237 185 178 174 193 206 194
24 30 34 36 32 36 36 38 31 29 26 23 20 18 14 16 11 21 19 8 4 355 335 304 270 249 248 248 248 248 250 252 248 235 226 214 218 214 211 211 209 209 206 208 207 203 204 204 206 205 205 201 194 199 201 197 198 196 196 199 200 200 199 201 211 211 191 197 184 189 191 183 187 191 192 194 199 193 210 186 174 189 192 162 190
23 24 25 25 27 30 34 33 28 27 28 27 23 20 22 19 17 25 21 13 6 356 346 328 313 290 274 274 267 264 259 259 252 251 237 226 222 225 214 212 211 209 207 209 210 205 204 204 202 202 204 205 203 204 203 197 196 193 195 200 207 210 212 202 209 211 199 205 192 201 203 198 205 199 193 186 195 207 198 206 176 155 164 153 141
34 28 23 22 24 21 24 25 26 26 26 25 24 23 22 23 23 28 26 16 10 2 355 346 329 314 305 292 280 275 269 265 265 258 255 240 230 228 219 216 213 209 210 211 210 202 201 203 202 204 206 206 204 201 203 195 190 189 195 198 204 203 207 203 206 211 199 204 200 206 209 208 211 212 196 189 203 209 201 208 138 161 186 164 156
34 31 29 26 23 23 25 24 24 24 24 24 23 24 24 25 25 29 28 23 19 15 9 360 349 334 324 310 300 292 282 272 268 268 262 255 244 237 230 226 221 216 215 214 212 201 202 207 207 209 211 209 203 202 200 194 191 195 195 196 199 201 201 202 209 207 204 206 203 201 209 214 217 208 201 192 193 189 201 207 152 149 84 151 129
29 33 30 27 23 22 23 24 25 25 23 24 23 22 22 24 23 26 26 22 22 20 16 10 359 347 333 320 303 291 285 285 281 276 270 262 251 247 242 237 233 228 221 220 209 202 205 207 209 208 208 209 205 203 203 200 198 200 203 202 201 200 201 201 209 203 203 200 205 206 202 209 213 196 195 205 197 196 193 190 161 164 186 178 169
30 28 28 28 27 24 23 22 24 23 24 25 24 23 22 20 22 25 26 23 22 20 20 13 5 354 345 325 305 290 286 287 285 282 279 274 265 252 250 244 240 238 229 216 208 202 204 208 209 209 206 206 206 207 207 206 202 204 209 205 207 196 201 202 210 206 210 203 204 203 205 213 206 194 201 205 199 198 198 185 179 180 180 193 193
36 32 28 26 27 27 25 23 21 22 22 23 22 21 20 20 22 24 25 26 26 23 19 17 11 5 356 338 321 312 307 296 290 286 280 275 269 264 258 255 248 240 238 215 211 207 209 210 213 214 212 210 208 203 199 202 203 208 214 213 214 206 207 210 210 211 213 204 207 201 209 210 204 192 202 209 202 201 204 193 189 192 197 206 181
37 35 32 30 31 28 25 24 26 25 23 21 20 20 21 23 21 22 22 23 20 18 17 17 13 11 6 1 352 343 330 316 303 292 286 277 267 260 258 255 249 243 235 220 216 214 212 211 216 215 212 209 208 204 200 199 198 210 216 219 218 210 208 213 212 214 211 201 205 202 208 216 195 187 202 201 198 202 199 196 200 204 206 212 204
31 29 28 25 27 28 27 28 28 27 28 26 22 21 21 24 26 33 31 27 22 18 17 16 16 13 7 4 1 356 350 334 318 306 295 280 275 270 262 257 258 245 238 233 220 220 215 211 212 217 215 213 211 209 202 202 200 208 210 215 212 209 210 214 214 209 213 200 203 204 204 214 195 194 195 196 199 196 199 196 206 204 207 215 220
30 33 31 24 25 26 25 25 25 24 22 18 15 16 21 19 19 18 15 17 19 20 17 18 16 14 10 10 11 9 3 351 338 326 313 304 294 286 279 270 260 256 244 233 227 221 218 216 214 215 217 214 212 211 207 209 207 212 210 209 209 203 211 214 212 206 202 204 205 208 206 207 193 187 197 195 196 196 194 197 198 197 204 208 210
55 40 32 34 29 27 26 25 25 24 23 21 19 20 20 20 19 16 14 10 9 8 8 11 8 9 11 11 7 7 3 357 352 344 331 320 308 296 287 279 277 261 251 241 234 229 223 220 218 215 216 215 212 210 208 207 211 215 216 216 211 203 206 211 209 209 203 203 208 208 208 206 187 191 198 192 194 190 187 197 192 193 200 193 191
43 34 29 22 20 18 20 23 24 24 22 24 21 21 21 20 14 11 10 13 6 2 0 355 359 360 2 5 7 5 2 0 358 356 349 341 328 318 306 294 280 272 259 250 243 235 229 227 223 220 216 217 214 211 209 207 212 214 216 212 212 207 207 211 205 212 200 199 204 205 207 198 191 197 195 195 191 186 189 190 194 192 198 191 194
33 32 28 25 21 17 18 20 21 22 20 18 18 19 17 16 14 11 10 6 4 359 356 353 351 352 353 356 356 358 1 2 0 -0 356 350 344 330 321 307 295 284 270 254 249 243 236 229 227 225 221 219 216 213 211 209 213 215 216 214 209 208 208 209 209 211 201 196 200 207 207 191 178 196 203 200 189 190 186 193 193 191 197 193 188
20 13 7 6 6 4 8 9 10 12 14 15 16 16 14 13 13 11 9 3 0 356 352 354 353 352 351 351 352 350 354 359 358 356 353 348 345 342 332 320 308 295 285 274 256 250 244 237 235 231 228 224 219 218 216 213 216 215 217 219 215 213 213 212 215 215 203 193 199 203 207 191 179 194 201 198 196 190 187 192 187 185 192 189 183
15 13 8 8 10 11 11 7 8 9 9 6 7 5 4 7 9 10 4 357 354 352 350 351 350 349 351 354 351 351 351 351 350 348 348 346 343 344 339 328 321 308 296 284 271 254 251 247 239 233 229 226 222 218 218 219 217 216 219 221 219 214 214 214 216 214 208 197 201 204 200 173 175 193 198 194 188 189 188 179 180 175 182 181 164
17 8 8 5 357 355 358 359 359 1 1 0 2 1 359 359 359 356 354 352 349 347 337 341 343 346 346 350 349 349 348 346 343 343 343 342 341 338 334 332 328 317 306 294 281 269 249 250 245 239 235 232 223 220 225 225 222 220 221 224 226 223 221 219 218 219 208 197 203 207 195 179 187 197 201 193 178 183 172 181 180 176 177 166 172
10 348 320 338 350 355 349 347 348 347 351 352 351 351 351 350 350 354 351 343 339 339 335 336 337 333 335 340 342 338 335 337 339 337 336 337 339 337 335 329 321 307 302 292 286 277 266 254 251 245 241 239 237 231 230 228 225 223 221 224 225 225 225 221 221 221 213 209 213 211 200 194 200 203 198 187 176 172 181 189 182 175 164 164 175
315 328 329 321 325 326 337 335 339 339 336 338 341 341 342 338 336 339 339 338 333 332 327 328 326 328 330 332 328 333 332 326 328 329 328 331 332 333 331 326 325 324 320 311 297 287 276 264 256 250 245 240 238 237 233 230 226 221 219 221 226 228 230 226 224 224 221 217 216 216 214 211 211 209 201 176 158 179 173 180 184 167 166 168 177
330 323 329 327 326 329 323 324 322 324 326 327 329 331 333 333 330 333 333 331 332 326 322 321 321 320 324 323 323 323 327 328 325 324 329 333 334 332 327 324 322 321 318 313 308 301 290 275 261 255 256 244 239 239 235 224 219 223 216 220 228 230 228 229 227 222 221 219 218 217 216 215 215 219 216 213 206 197 171 180 181 163 172 168 169
314 307 309 305 304 304 308 306 308 311 316 316 318 322 325 325 325 329 334 333 335 328 323 324 321 322 323 322 321 319 320 323 322 325 328 328 325 325 328 329 328 324 321 314 304 293 288 286 279 263 249 249 248 245 240 237 232 229 229 233 232 231 231 233 232 226 224 222 220 218 217 220 221 221 220 219 217 213 209 200 161 166 176 165 169
298 294 291 296 296 300 300 302 304 309 305 309 305 309 313 311 313 319 320 325 325 320 321 322 321 322 322 322 322 321 319 316 313 312 315 323 325 324 321 320 319 321 318 312 311 302 297 291 284 279 271 255 245 244 242 234 231 228 231 234 233 236 235 233 233 227 227 223 222 221 221 218 220 221 221 219 211 206 206 216 214 200 177 162 170
300 295 293 297 301 302 306 306 306 304 304 304 306 304 305 306 308 311 315 318 318 313 313 313 315 319 320 322 323 324 324 320 318 315 315 311 310 309 314 314 316 316 317 314 308 299 294 290 282 278 274 270 266 252 241 235 232 229 228 233 235 235 232 232 232 228 227 224 221 219 216 210 205 210 201 202 210 206 204 207 207 209 210 208 195
304 303 298 296 296 297 296 299 299 301 303 302 302 299 295 300 301 303 311 309 309 310 307 308 309 313 315 317 321 324 324 322 319 316 317 317 313 312 311 317 314 311 307 309 308 308 302 298 289 282 276 268 267 265 260 239 233 230 228 227 236 234 233 233 230 228 226 222 213 204 210 207 204 209 206 202 199 199 201 200 200 200 208 209 214
287 288 289 290 291 289 288 287 288 289 292 295 290 284 282 282 283 289 296 299 302 303 303 303 304 304 306 310 313 317 317 317 316 315 318 320 321 318 319 317 311 308 304 300 301 299 298 298 293 287 281 277 271 273 266 251 238 232 232 228 233 235 235 235 231 224 221 222 212 199 202 201 186 185 196 198 190 189 185 187 193 195 197 206 215
298 301 306 300 292 287 283 283 283 287 289 288 286 284 286 281 270 272 277 287 291 292 293 294 295 298 300 304 307 311 314 315 314 312 312 315 314 315 316 316 312 307 303 300 299 299 294 293 289 283 283 276 269 270 269 263 254 243 236 230 234 235 237 238 232 223 220 220 215 207 205 201 190 182 193 190 186 175 181 185 191 197 193 196 200
289 294 293 296 295 295 294 290 288 284 282 282 284 289 287 285 281 273 278 278 281 284 286 291 290 290 293 297 303 306 308 310 310 308 309 312 313 310 312 313 308 300 291 290 290 288 288 290 288 282 281 276 272 266 263 262 257 252 247 238 238 237 239 239 239 229 213 217 218 202 204 199 188 188 191 188 181 166 186 193 198 199 191 192 199
270 272 274 276 281 280 283 283 283 283 284 283 284 285 283 281 278 273 277 280 281 279 282 285 285 286 290 291 295 300 303 305 305 302 304 308 312 312 309 311 301 297 295 291 284 283 285 285 284 284 275 272 272 267 266 263 258 256 251 244 241 241 240 241 236 219 216 216 211 203 206 205 190 195 185 186 184 167 187 195 198 197 187 188 193
265 270 272 272 272 275 275 281 291 294 292 295 294 296 292 285 281 283 283 282 281 279 280 278 277 281 281 286 294 298 299 300 300 297 301 304 304 301 297 298 296 294 291 286 288 288 281 273 276 281 277 276 278 266 260 262 259 254 248 246 245 244 243 240 234 214 215 220 216 217 213 206 195 195 183 191 193 185 196 198 198 196 186 192 190
256 264 271 277 283 290 294 294 292 290 298 308 311 304 290 282 282 283 280 277 278 280 281 281 282 284 284 284 288 290 292 291 288 290 297 298 298 297 294 296 291 289 286 289 287 284 285 280 275 277 275 271 270 272 269 262 258 254 250 244 247 248 248 242 236 225 209 221 217 212 204 204 192 187 186 195 198 192 197 198 191 187 189 194 189
259 261 270 296 307 302 294 292 293 297 309 313 313 303 292 287 284 283 276 272 278 281 283 287 286 285 284 284 286 287 284 282 284 290 292 288 289 291 289 291 291 290 289 287 285 280 282 281 277 277 276 268 269 267 266 262 258 253 248 245 243 247 247 247 240 229 205 207 206 199 200 204 200 192 194 199 200 198 189 183 183 193 189 196 174
282 305 347 321 310 304 301 302 300 302 304 304 304 297 291 291 289 288 280 286 292 292 293 287 285 283 281 279 280 279 280 277 280 286 289 286 283 284 286 285 288 288 284 283 282 281 278 276 271 264 263 265 258 264 270 266 262 256 250 246 243 243 248 247 249 234 213 208 203 204 197 199 204 202 201 202 203 203 197 186 193 194 193 162 158
306 319 322 321 313 303 299 297 298 302 307 307 301 293 291 294 293 286 290 301 298 301 297 290 282 277 274 272 274 274 272 275 280 281 282 280 278 277 277 280 281 281 283 283 280 277 273 269 270 263 256 258 253 245 259 263 260 257 250 244 243 243 241 244 244 236 225 206 205 194 188 189 199 204 205 203 205 206 207 200 203 198 173 166 174
325 323 326 326 311 305 302 301 304 308 316 322 319 306 299 296 290 293 304 303 305 302 295 289 282 281 280 281 281 277 275 270 274 275 276 276 280 280 277 277 276 275 272 275 274 273 269 266 264 262 260 248 237 240 245 251 252 252 250 245 242 243 243 241 244 242 233 203 186 181 181 183 196 203 203 204 205 211 212 207 200 192 183 173 156
314 314 317 324 306 303 304 306 310 313 318 322 319 308 304 301 297 307 305 302 302 300 294 287 283 283 288 285 284 283 280 274 274 278 276 275 276 277 276 275 276 275 275 272 270 269 267 263 261 262 257 252 241 238 234 239 244 246 248 247 246 244 243 241 240 242 236 205 189 187 175 188 200 202 203 204 208 209 210 210 201 194 186 177 156
311 315 321 324 320 317 314 310 310 314 319 321 319 312 307 303 306 313 310 312 310 306 299 291 290 290 288 288 290 286 283 279 273 276 278 278 275 273 275 271 270 271 268 267 266 266 264 263 261 260 262 259 250 232 226 235 238 242 244 246 246 246 245 245 243 241 229 218 184 175 185 195 200 204 203 207 213 214 213 209 201 196 190 186 174
315 322 338 335 326 318 312 309 308 314 322 319 317 317 311 307 312 311 310 309 306 303 297 292 291 289 289 291 292 290 285 280 279 280 275 274 272 271 269 271 267 263 263 262 264 264 262 261 260 259 261 261 255 245 228 225 227 240 241 244 244 244 244 243 244 240 231 211 187 188 194 196 202 205 211 210 210 212 215 211 201 193 190 193 181
324 329 342 331 332 321 316 316 310 315 324 319 316 312 307 307 306 307 307 306 302 298 295 293 291 292 293 291 289 288 289 287 282 278 272 269 269 267 264 264 262 263 264 264 264 263 264 262 260 260 261 262 259 246 239 227 216 227 231 235 238 244 245 247 249 245 229 205 193 187 189 192 196 209 213 211 209 205 209 211 196 191 193 188 180
326 324 336 328 324 319 313 314 309 312 316 314 312 308 308 307 304 304 305 304 299 296 295 293 293 293 291 292 289 287 286 284 282 278 276 272 266 263 263 260 259 258 261 264 263 263 262 263 265 264 265 265 261 254 236 220 215 212 221 222 229 235 236 231 236 237 221 206 185 188 190 194 198 202 208 209 208 208 207 190 183 188 187 179 166
325 327 339 329 323 317 310 306 302 307 308 305 300 299 300 302 302 300 298 297 294 295 292 290 290 290 287 288 285 284 283 283 281 278 271 266 265 266 262 262 254 252 253 258 260 260 258 260 265 266 267 266 265 259 249 220 213 202 205 217 221 224 220 225 227 226 201 188 185 185 186 190 193 198 203 206 207 205 198 185 184 186 177 157 152
324 322 322 319 315 310 306 304 300 302 302 301 298 298 298 292 293 291 290 291 292 292 291 290 290 289 289 289 287 284 284 283 281 280 280 276 265 262 262 261 264 257 253 253 253 256 257 261 262 260 258 261 261 263 273 273 234 221 221 221 221 220 220 221 224 227 194 189 187 188 187 188 191 194 199 202 203 203 192 187 186 175 165 155 167
324 321 317 316 311 308 301 296 294 295 294 293 290 289 289 289 291 292 291 285 287 290 292 291 291 290 290 290 288 287 285 283 282 281 281 281 284 274 266 268 267 266 262 259 259 260 261 260 261 262 259 258 262 267 268 265 264 262 246 234 229 229 231 230 226 227 191 190 189 188 189 188 190 190 196 197 190 193 183 181 175 170 169 162 164